This is the latest recevied weather packets stored in our database for station/object HOWARD. If no packets are shown the sender has not sent any weather packets the latest 10 day(s).
| Time | Temp. | Humidity | Pressure | Rain* | Wind** | Luminosity | Snow |
|---|---|---|---|---|---|---|---|
| 1788561887 | 5° C | 75% | 1011 hPa | 0.76 mm | - | - | - |
| 1788561287 | 3.89° C | 79% | 1011 hPa | 1.02 mm | - | - | - |
| 1788560687 | 3.33° C | 79% | 1011.1 hPa | 0.76 mm | - | - | - |
| 1788560184 | 3.33° C | 80% | 1011 hPa | 1.02 mm | - | - | - |
| 1788560087 | 3.33° C | 80% | 1011 hPa | 1.02 mm | - | - | - |
| 1788559487 | 3.89° C | 79% | 1011 hPa | 1.02 mm | - | - | - |
| 1788558887 | 3.89° C | 77% | 1010.9 hPa | 1.02 mm | - | - | - |
| 1788558287 | 3.89° C | 82% | 1010.9 hPa | 1.27 mm | - | - | - |
| 1788557687 | 3.89° C | 86% | 1010.8 hPa | 1.27 mm | - | - | - |
| 1788557087 | 3.89° C | 85% | 1010.7 hPa | 1.52 mm | - | - | - |
| 1788556487 | 3.89° C | 87% | 1010.5 hPa | 1.78 mm | - | - | - |
| 1788555887 | 3.33° C | 86% | 1010.4 hPa | 1.78 mm | - | - | - |
| 1788555287 | 3.89° C | 87% | 1010.3 hPa | 1.78 mm | - | - | - |
| 1788554687 | 3.89° C | 86% | 1010.3 hPa | 2.03 mm | - | - | - |
| 1788554087 | 3.89° C | 86% | 1011 hPa | 2.29 mm | - | - | - |
| 1788553487 | 3.33° C | 85% | 1010.7 hPa | 2.29 mm | - | - | - |
| 1788552887 | 3.33° C | 85% | 1010.6 hPa | 2.29 mm | - | - | - |
| 1788552582 | 3.89° C | 84% | 1010.6 hPa | 2.29 mm | - | - | - |
| 1788552287 | 3.89° C | 84% | 1010.6 hPa | 2.29 mm | - | - | - |
| 1788551687 | 3.89° C | 86% | 1010.5 hPa | 2.54 mm | - | - | - |
| 1788551087 | 3.33° C | 85% | 1010.6 hPa | 2.29 mm | - | - | - |
| 1788550487 | 3.89° C | 85% | 1010.6 hPa | 2.29 mm | - | - | - |
| 1788549887 | 3.33° C | 86% | 1010.4 hPa | 2.29 mm | - | - | - |
| 1788549287 | 2.78° C | 84% | 1010.4 hPa | 2.29 mm | - | - | - |
| 1788548687 | 2.78° C | 82% | 1010.5 hPa | 2.54 mm | - | - | - |
* Rain latest hour (hover to see other rain measurements)
** Current wind speed in m/s (hover to see current wind gust speed)